Regional Weather Roundup
Issued by NWS

Home | Current Version | Previous Version | Graphics & Text | Print | Product List | Glossary On
Versions: 1 2 3 4 5 6 7 8 9 10 11 12 13 14 15 16 17 18 19 20 21 22 23 24 25 26 27 28 29 30 31 32 33 34 35 36 37 38 39 40 41 42 43 44 45 46 47 48 49 50
315
ASUS43 KIND 240409
RWRIN

WEATHER ROUNDUP FOR INDIANA
NATIONAL WEATHER SERVICE INDIANAPOLIS IN
1100 PM EST THU FEB 23 2017

NOTE: "FAIR" INDICATES FEW OR NO CLOUDS BELOW 12,000 FEET WITH NO
SIGNIFICANT WEATHER AND/OR OBSTRUCTIONS TO VISIBILITY.

* - STATION DOES NOT REPORT WEATHER SUCH AS PRECIPITATION OR FOG.

+ - STATION NOT QUALITY CONTROLLED BY THE NATIONAL WEATHER SERVICE.
    USE DATA WITH CAUTION...ESPECIALLY DEWPOINT AND RELATIVE
    HUMIDITY OBSERVATIONS.

INZ001>003-010>013-019-020-240500-
NORTHWEST INDIANA

CITY           SKY/WX    TMP DP  RH WIND       PRES   REMARKS
GARY /AIRPORT/ CLOUDY    39  38  96 NE7       29.73F
KNOX *+        CLOUDY    43  34  70 N3        29.70S
LA PORTE +     CLOUDY    43  42  97 N5        29.71F FOG
MICHIGAN CITY+ CLOUDY    37  37 100 CALM      29.72F FOG
MONTICELLO +   MOCLDY    50  46  84 NE5       29.66F
RENSSELAER +   MOCLDY    43  41  93 N6        29.69S
VALPARAISO     CLOUDY    42  40  92 NE7       29.71F FOG

$$

LMZ046-743>745-240500-
SOUTHERN LAKE MICHIGAN

STATION/POSITION TIME  TEMP    WIND        PRES    WAVE
                       AIR SEA DIR/SP/G            HT
                 (UTC) (F)     (DEG/KT/KT) (MB)    (FT)
BURNS HARBOR     0340   37      70/ 10/ 11 1006.8F
MICHIGAN CITY    0340   36      20/  8/  9   N/A

$$

INZ004-005-014>016-021>024-240500-
NORTH CENTRAL INDIANA

CITY           SKY/WX    TMP DP  RH WIND       PRES   REMARKS
GOSHEN         CLOUDY    50  45  83 E8        29.72S HAZE
LOGANSPORT +   CLOUDY    52  46  82 E5        29.68F
PERU/GRISSOM   PTCLDY    55  55 100 SE9       29.66F
ROCHESTER +    CLOUDY    52  46  82 NE3       29.70S
SOUTH BEND     CLOUDY    46  45  96 E6        29.71F FOG
WARSAW +       CLOUDY    52  46  82 E6        29.70F

$$

INZ006>009-017-018-025>027-240500-
NORTHEAST INDIANA

CITY           SKY/WX    TMP DP  RH WIND       PRES   REMARKS
ANGOLA *+      MOCLDY    50  48  93 E9        29.73F
AUBURN +       CLOUDY    54  45  71 E6        29.73F
FORT WAYNE     CLOUDY    55  51  86 NE5       29.72F
HUNTINGTON +   CLOUDY    57  54  89 SE6       29.71S
KENDALLVILLE + CLOUDY    51  47  87 E9        29.73S FOG

$$

INZ028-029-035-036-043>045-051>053-240500-
WEST CENTRAL INDIANA

CITY           SKY/WX    TMP DP  RH WIND       PRES   REMARKS
LAFAYETTE      PTCLDY    53  50  89 E5        29.65F
TERRE HAUTE    CLOUDY    60  53  77 SE7       29.65F

$$

INZ030>032-037>040-046>048-054>057-064-065-240500-
CENTRAL INDIANA

CITY           SKY/WX    TMP DP  RH WIND       PRES   REMARKS
CP ATTERBURY + PTCLDY    57  54  88 SE7       29.70F
FRANKFORT +    CLOUDY    60  56  87 SE10      29.69F
GREENWOOD *+   PTCLDY    60  56  87 SE7       29.70F
INDIANAPOLIS   MOCLDY    60  54  80 SE12      29.67F
-EAGLE CREEK   PTCLDY    61  54  77 SE7       29.67F
KOKOMO +       PTCLDY    55  53  93 SE8       29.69F
MARION +       CLOUDY    57  53  87 SE9       29.70F
MT COMFORT *+  MOCLDY    59  54  82 S9        29.70F
SHELBYVILLE    PTCLDY    61  54  77 SE12      29.69F
ZIONSVILLE +   PTCLDY    58  54  85 SE9       29.69F

$$

INZ033-034-041-042-049-050-058-059-240500-
EAST CENTRAL INDIANA

CITY           SKY/WX    TMP DP  RH WIND       PRES   REMARKS
MUNCIE         PTCLDY    58  53  84 SE7       29.70F

$$

INZ060-061-067>069-081>083-085>088-240500-
SOUTHWEST INDIANA

CITY           SKY/WX    TMP DP  RH WIND       PRES   REMARKS
EVANSVILLE     CLOUDY    64  54  69 SE7       29.66S
HUNTINGBURG *+ MOCLDY    66  55  68 SE13      29.66F
WASHINGTON +   CLOUDY    58  52  81 SE5       29.65F

$$

INZ062-063-066-070>080-084-089>092-240500-
SOUTH CENTRAL AND SOUTHEAST INDIANA

CITY           SKY/WX    TMP DP  RH WIND       PRES   REMARKS
BEDFORD +      CLOUDY   N/A N/A N/A SE9       29.69F
BLOOMINGTON    PTCLDY    60  53  77 SE6       29.68F
MADISON *+     PTCLDY    63  54  72 SE6       29.74F
NORTH VERNON + PTCLDY    63  57  82 SE7       29.73F
SEYMOUR +      CLOUDY    63  55  77 SE9       29.70F

$$





USA.gov is the U.S. government's official web portal to all federal, state and local government web resources and services.